| time (UTC) | temp F | wind direction | speed MPH | gust MPH | rain 1hr in | rain 24hr in | rain mn in | humidity % | barometer mb |
| 20260902034517 | 63 | 189 | 3.0 | 6.0 | 0.00 | 0.00 | 0.00 | 76 | 1009.4 |
| 20260902034016 | 63 | 182 | 5.0 | 8.0 | 0.00 | 0.00 | 0.00 | 76 | 1009.3 |
| 20260902033516 | 64 | 181 | 5.0 | 8.0 | 0.00 | 0.00 | 0.00 | 74 | 1009.2 |
| 20260902033017 | 64 | 184 | 5.0 | 11.0 | 0.00 | 0.00 | 0.00 | 73 | 1009.1 |
| 20260902032556 | 64 | 199 | 4.0 | 11.0 | 0.00 | 0.00 | 0.00 | 72 | 1009.1 |
| 20260902032019 | 64 | 187 | 3.0 | 8.0 | 0.00 | 0.00 | 0.00 | 72 | 1009.0 |
| 20260902031517 | 65 | 182 | 3.0 | 8.0 | 0.00 | 0.00 | 0.00 | 72 | 1008.9 |
| 20260902031016 | 65 | 185 | 3.0 | 9.0 | 0.00 | 0.00 | 0.00 | 72 | 1008.9 |
| 20260902030516 | 65 | 190 | 3.0 | 7.0 | 0.00 | 0.00 | 0.00 | 72 | 1008.9 |
| 20260902030016 | 65 | 168 | 3.0 | 6.0 | 0.00 | 0.00 | 0.00 | 72 | 1008.9 |
| 20260902025517 | 65 | 197 | 5.0 | 9.0 | 0.00 | 0.00 | 0.00 | 72 | 1008.8 |
| 20260902025017 | 65 | 187 | 4.0 | 8.0 | 0.00 | 0.00 | 0.00 | 71 | 1008.8 |
| 20260902024517 | 66 | 186 | 3.0 | 7.0 | 0.00 | 0.00 | 0.00 | 70 | 1008.8 |
| 20260902024017 | 66 | 196 | 2.0 | 7.0 | 0.00 | 0.00 | 0.00 | 70 | 1008.8 |
| 20260902023537 | 66 | 167 | 4.0 | 8.0 | 0.00 | 0.00 | 0.00 | 69 | 1008.7 |
| 20260902023017 | 66 | 170 | 3.0 | 7.0 | 0.00 | 0.00 | 0.00 | 69 | 1008.8 |
| 20260902022517 | 66 | 177 | 5.0 | 10.0 | 0.00 | 0.00 | 0.00 | 68 | 1008.8 |
| 20260902022017 | 66 | 176 | 3.0 | 11.0 | 0.00 | 0.00 | 0.00 | 69 | 1008.8 |
| 20260902021537 | 66 | 192 | 3.0 | 8.0 | 0.00 | 0.00 | 0.00 | 68 | 1008.9 |
| 20260902021040 | 66 | 192 | 4.0 | 8.0 | 0.00 | 0.00 | 0.00 | 68 | 1008.8 |
| 20260902020537 | 66 | 189 | 3.0 | 9.0 | 0.00 | 0.00 | 0.00 | 69 | 1008.9 |
| 20260902020017 | 66 | 177 | 4.0 | 9.0 | 0.00 | 0.00 | 0.00 | 69 | 1008.8 |
| 20260902015518 | 66 | 189 | 4.0 | 10.0 | 0.00 | 0.00 | 0.00 | 69 | 1008.9 |
| 20260902015017 | 66 | 194 | 3.0 | 6.0 | 0.00 | 0.00 | 0.00 | 69 | 1008.9 |
| 20260902014518 | 66 | 197 | 4.0 | 8.0 | 0.00 | 0.00 | 0.00 | 69 | 1008.9 |
| 20260902014038 | 66 | 200 | 4.0 | 8.0 | 0.00 | 0.00 | 0.00 | 69 | 1008.9 |
| 20260902013521 | 66 | 191 | 5.0 | 10.0 | 0.00 | 0.00 | 0.00 | 69 | 1008.8 |
| 20260902013018 | 66 | 198 | 2.0 | 8.0 | 0.00 | 0.00 | 0.00 | 70 | 1008.8 |
| 20260902012518 | 66 | 173 | 4.0 | 7.0 | 0.00 | 0.00 | 0.00 | 70 | 1008.8 |
| 20260902012018 | 66 | 195 | 3.0 | 9.0 | 0.00 | 0.00 | 0.00 | 69 | 1008.8 |
| 20260902011521 | 66 | 188 | 5.0 | 11.0 | 0.00 | 0.00 | 0.00 | 69 | 1008.9 |
| 20260902011018 | 66 | 176 | 3.0 | 9.0 | 0.00 | 0.00 | 0.00 | 69 | 1008.9 |
| 20260902010519 | 66 | 184 | 4.0 | 9.0 | 0.00 | 0.00 | 0.00 | 68 | 1008.8 |
| 20260902010021 | 67 | 184 | 5.0 | 9.0 | 0.00 | 0.00 | 0.00 | 68 | 1008.8 |
| 20260902005541 | 67 | 155 | 5.0 | 9.0 | 0.00 | 0.00 | 0.00 | 68 | 1008.8 |
| 20260902005039 | 67 | 183 | 4.0 | 8.0 | 0.00 | 0.00 | 0.00 | 67 | 1008.9 |
| 20260902004519 | 67 | 200 | 4.0 | 8.0 | 0.00 | 0.00 | 0.00 | 67 | 1008.9 |
| 20260902004039 | 68 | 190 | 5.0 | 8.0 | 0.00 | 0.00 | 0.00 | 66 | 1009.0 |
| 20260902003519 | 68 | 172 | 4.0 | 10.0 | 0.00 | 0.00 | 0.00 | 65 | 1009.0 |
| 20260902003019 | 68 | 187 | 5.0 | 10.0 | 0.00 | 0.00 | 0.00 | 65 | 1008.9 |
| 20260902002536 | 67 | 196 | 6.0 | 9.0 | 0.00 | 0.00 | 0.00 | 65 | 1008.9 |
| 20260902002019 | 68 | 207 | 5.0 | 12.0 | 0.00 | 0.00 | 0.00 | 65 | 1008.9 |
| 20260902001516 | 68 | 226 | 4.0 | 8.0 | 0.00 | 0.00 | 0.00 | 66 | 1008.9 |
| 20260902001057 | 68 | 205 | 5.0 | 9.0 | 0.00 | 0.00 | 0.00 | 66 | 1008.9 |
| 20260902000536 | 68 | 206 | 6.0 | 11.0 | 0.00 | 0.00 | 0.00 | 66 | 1008.9 |
| 20260902000036 | 68 | 179 | 5.0 | 9.0 | 0.00 | 0.00 | 0.00 | 67 | 1008.9 |
| 20260901235516 | 68 | 163 | 4.0 | 8.0 | 0.00 | 0.00 | 0.00 | 66 | 1008.9 |
| 20260901235017 | 68 | 178 | 5.0 | 9.0 | 0.00 | 0.00 | 0.00 | 66 | 1008.9 |
| 20260901234516 | 68 | 155 | 6.0 | 9.0 | 0.00 | 0.00 | 0.00 | 65 | 1008.8 |
| 20260901234016 | 68 | 181 | 4.0 | 10.0 | 0.00 | 0.00 | 0.00 | 65 | 1008.9 |
| 20260901233517 | 67 | 206 | 3.0 | 8.0 | 0.00 | 0.00 | 0.00 | 66 | 1008.9 |
| 20260901233017 | 67 | 169 | 4.0 | 8.0 | 0.00 | 0.00 | 0.00 | 67 | 1008.9 |
| 20260901232517 | 67 | 170 | 4.0 | 9.0 | 0.00 | 0.00 | 0.00 | 67 | 1008.9 |
| 20260901232017 | 67 | 158 | 4.0 | 11.0 | 0.00 | 0.00 | 0.00 | 67 | 1009.0 |
| 20260901231517 | 67 | 176 | 3.0 | 6.0 | 0.00 | 0.00 | 0.00 | 67 | 1008.9 |
| 20260901231020 | 67 | 169 | 6.0 | 12.0 | 0.00 | 0.00 | 0.00 | 67 | 1008.9 |
| 20260901230520 | 67 | 181 | 5.0 | 9.0 | 0.00 | 0.00 | 0.00 | 66 | 1008.9 |
| 20260901230017 | 67 | 206 | 4.0 | 9.0 | 0.00 | 0.00 | 0.00 | 67 | 1008.9 |
| 20260901225517 | 67 | 203 | 5.0 | 11.0 | 0.00 | 0.00 | 0.00 | 67 | 1008.9 |
| 20260901225017 | 68 | 209 | 4.0 | 9.0 | 0.00 | 0.00 | 0.00 | 67 | 1008.9 |
| 20260901224517 | 68 | 205 | 3.0 | 7.0 | 0.00 | 0.00 | 0.00 | 66 | 1008.9 |
| 20260901224038 | 68 | 172 | 3.0 | 10.0 | 0.00 | 0.00 | 0.00 | 67 | 1008.9 |
| 20260901223517 | 68 | 169 | 3.0 | 7.0 | 0.00 | 0.00 | 0.00 | 67 | 1008.9 |
| 20260901223018 | 68 | 180 | 4.0 | 9.0 | 0.00 | 0.00 | 0.00 | 67 | 1008.9 |
| 20260901222518 | 68 | 200 | 4.0 | 7.0 | 0.00 | 0.00 | 0.00 | 67 | 1008.9 |
| 20260901222018 | 68 | 197 | 4.0 | 8.0 | 0.00 | 0.00 | 0.00 | 67 | 1008.9 |
| 20260901221517 | 68 | 207 | 4.0 | 8.0 | 0.00 | 0.00 | 0.00 | 67 | 1008.9 |
| 20260901221018 | 68 | 236 | 2.0 | 7.0 | 0.00 | 0.00 | 0.00 | 67 | 1009.0 |
| 20260901220518 | 68 | 204 | 5.0 | 8.0 | 0.00 | 0.00 | 0.00 | 66 | 1009.0 |
| 20260901220018 | 68 | 189 | 4.0 | 7.0 | 0.00 | 0.00 | 0.00 | 65 | 1009.0 |
| 20260901215518 | 68 | 192 | 4.0 | 8.0 | 0.00 | 0.00 | 0.00 | 66 | 1009.0 |
| 20260901215018 | 68 | 213 | 4.0 | 8.0 | 0.00 | 0.00 | 0.00 | 66 | 1009.0 |
| 20260901214519 | 68 | 244 | 4.0 | 8.0 | 0.00 | 0.00 | 0.00 | 66 | 1009.0 |
| 20260901214018 | 68 | 227 | 4.0 | 9.0 | 0.00 | 0.00 | 0.00 | 65 | 1009.0 |
| 20260901213518 | 68 | 204 | 3.0 | 7.0 | 0.00 | 0.00 | 0.00 | 66 | 1009.0 |
| 20260901213016 | 68 | 181 | 5.0 | 9.0 | 0.00 | 0.00 | 0.00 | 66 | 1009.0 |
| 20260901212516 | 68 | 205 | 4.0 | 9.0 | 0.00 | 0.00 | 0.00 | 65 | 1009.0 |
| 20260901212016 | 68 | 190 | 5.0 | 9.0 | 0.00 | 0.00 | 0.00 | 65 | 1009.0 |
| 20260901211517 | 68 | 214 | 4.0 | 11.0 | 0.00 | 0.00 | 0.00 | 65 | 1009.1 |
| 20260901211037 | 68 | 225 | 5.0 | 9.0 | 0.00 | 0.00 | 0.00 | 65 | 1009.1 |
| 20260901210516 | 68 | 197 | 4.0 | 9.0 | 0.00 | 0.00 | 0.00 | 66 | 1009.2 |
| 20260901210016 | 69 | 193 | 4.0 | 10.0 | 0.00 | 0.00 | 0.00 | 66 | 1009.2 |
| 20260901205516 | 69 | 165 | 4.0 | 7.0 | 0.00 | 0.00 | 0.00 | 66 | 1009.2 |
| 20260901205037 | 70 | 187 | 4.0 | 9.0 | 0.00 | 0.00 | 0.00 | 63 | 1009.2 |
| 20260901204617 | 70 | 191 | 6.0 | 12.0 | 0.00 | 0.00 | 0.00 | 62 | 1009.2 |
| 20260901204016 | 70 | 182 | 4.0 | 8.0 | 0.00 | 0.00 | 0.00 | 61 | 1009.3 |
| 20260901203517 | 70 | 189 | 6.0 | 13.0 | 0.00 | 0.00 | 0.00 | 61 | 1009.3 |
| 20260901203016 | 70 | 190 | 5.0 | 9.0 | 0.00 | 0.00 | 0.00 | 60 | 1009.3 |
| 20260901202517 | 70 | 207 | 4.0 | 7.0 | 0.00 | 0.00 | 0.00 | 61 | 1009.2 |
| 20260901202016 | 70 | 179 | 4.0 | 8.0 | 0.00 | 0.00 | 0.00 | 62 | 1009.2 |
| 20260901201517 | 70 | 205 | 6.0 | 11.0 | 0.00 | 0.00 | 0.00 | 61 | 1009.3 |
| 20260901201017 | 70 | 156 | 5.0 | 10.0 | 0.00 | 0.00 | 0.00 | 61 | 1009.3 |
| 20260901200516 | 71 | 192 | 4.0 | 9.0 | 0.00 | 0.00 | 0.00 | 60 | 1009.4 |
| 20260901200017 | 70 | 185 | 4.0 | 8.0 | 0.00 | 0.00 | 0.00 | 61 | 1009.3 |
| 20260901195517 | 70 | 165 | 5.0 | 10.0 | 0.00 | 0.00 | 0.00 | 62 | 1009.4 |
| 20260901195017 | 70 | 190 | 5.0 | 9.0 | 0.00 | 0.00 | 0.00 | 61 | 1009.4 |
| 20260901194517 | 70 | 214 | 4.0 | 10.0 | 0.00 | 0.00 | 0.00 | 62 | 1009.4 |
| 20260901194017 | 69 | 186 | 6.0 | 11.0 | 0.00 | 0.00 | 0.00 | 63 | 1009.4 |
| 20260901193517 | 69 | 225 | 5.0 | 9.0 | 0.00 | 0.00 | 0.00 | 63 | 1009.4 |
| 20260901193017 | 69 | 188 | 6.0 | 11.0 | 0.00 | 0.00 | 0.00 | 64 | 1009.5 |
| 20260901192538 | 69 | 196 | 6.0 | 12.0 | 0.00 | 0.00 | 0.00 | 64 | 1009.5 |
| 20260901192017 | 68 | 212 | 3.0 | 8.0 | 0.00 | 0.00 | 0.00 | 64 | 1009.5 |
| 20260901191537 | 68 | 204 | 4.0 | 9.0 | 0.00 | 0.00 | 0.00 | 65 | 1009.5 |
| 20260901191018 | 68 | 182 | 7.0 | 11.0 | 0.00 | 0.00 | 0.00 | 66 | 1009.5 |
| 20260901190517 | 67 | 190 | 5.0 | 10.0 | 0.00 | 0.00 | 0.00 | 66 | 1009.5 |
| 20260901190018 | 68 | 197 | 7.0 | 12.0 | 0.00 | 0.00 | 0.00 | 67 | 1009.5 |
| 20260901185517 | 68 | 196 | 5.0 | 11.0 | 0.00 | 0.00 | 0.00 | 66 | 1009.6 |
| 20260901185019 | 68 | 198 | 6.0 | 11.0 | 0.00 | 0.00 | 0.00 | 66 | 1009.6 |
| 20260901184518 | 67 | 206 | 4.0 | 9.0 | 0.00 | 0.00 | 0.00 | 67 | 1009.6 |
| 20260901184018 | 67 | 233 | 4.0 | 8.0 | 0.00 | 0.00 | 0.00 | 68 | 1009.6 |
| 20260901183619 | 67 | 198 | 5.0 | 9.0 | 0.00 | 0.00 | 0.00 | 68 | 1009.6 |
| 20260901183018 | 66 | 199 | 3.0 | 7.0 | 0.00 | 0.00 | 0.00 | 69 | 1009.6 |
| 20260901182518 | 66 | 217 | 4.0 | 9.0 | 0.00 | 0.00 | 0.00 | 70 | 1009.6 |
| 20260901182018 | 66 | 202 | 5.0 | 10.0 | 0.00 | 0.00 | 0.00 | 70 | 1009.6 |
| 20260901181539 | 66 | 216 | 5.0 | 10.0 | 0.00 | 0.00 | 0.00 | 69 | 1009.6 |
| 20260901181019 | 65 | 256 | 4.0 | 13.0 | 0.00 | 0.00 | 0.00 | 70 | 1009.7 |
| 20260901180540 | 65 | 188 | 4.0 | 8.0 | 0.00 | 0.00 | 0.00 | 73 | 1009.6 |
| 20260901180039 | 64 | 207 | 3.0 | 7.0 | 0.00 | 0.00 | 0.00 | 73 | 1009.6 |
| 20260901175519 | 64 | 215 | 4.0 | 12.0 | 0.00 | 0.00 | 0.00 | 74 | 1009.6 |
| 20260901175019 | 64 | 180 | 5.0 | 13.0 | 0.00 | 0.00 | 0.00 | 74 | 1009.5 |
| 20260901174516 | 63 | 200 | 5.0 | 9.0 | 0.00 | 0.00 | 0.00 | 75 | 1009.5 |
| 20260901174017 | 63 | 229 | 3.0 | 9.0 | 0.00 | 0.00 | 0.00 | 75 | 1009.4 |
| 20260901173536 | 63 | 258 | 3.0 | 7.0 | 0.00 | 0.00 | 0.00 | 76 | 1009.4 |
| 20260901173016 | 62 | 193 | 2.0 | 5.0 | 0.00 | 0.00 | 0.00 | 77 | 1009.5 |
| 20260901172516 | 62 | 167 | 3.0 | 8.0 | 0.00 | 0.00 | 0.00 | 78 | 1009.5 |
| 20260901172016 | 62 | 170 | 3.0 | 7.0 | 0.00 | 0.00 | 0.00 | 80 | 1009.6 |
| 20260901171516 | 61 | 174 | 3.0 | 7.0 | 0.00 | 0.00 | 0.00 | 80 | 1009.5 |
| 20260901171016 | 61 | 184 | 4.0 | 8.0 | 0.00 | 0.00 | 0.00 | 80 | 1009.5 |
| 20260901170517 | 61 | 169 | 4.0 | 8.0 | 0.00 | 0.00 | 0.00 | 81 | 1009.5 |
| 20260901170016 | 61 | 199 | 3.0 | 6.0 | 0.00 | 0.00 | 0.00 | 81 | 1009.5 |
| 20260901165517 | 61 | 180 | 4.0 | 8.0 | 0.00 | 0.00 | 0.00 | 82 | 1009.5 |
| 20260901165016 | 61 | 165 | 5.0 | 9.0 | 0.00 | 0.00 | 0.00 | 82 | 1009.5 |
| 20260901164517 | 61 | 168 | 3.0 | 6.0 | 0.00 | 0.00 | 0.00 | 82 | 1009.5 |
| 20260901164020 | 61 | 178 | 3.0 | 7.0 | 0.00 | 0.00 | 0.00 | 82 | 1009.5 |
| 20260901163517 | 60 | 183 | 3.0 | 7.0 | 0.00 | 0.00 | 0.00 | 83 | 1009.5 |
| 20260901163017 | 60 | 197 | 4.0 | 9.0 | 0.00 | 0.00 | 0.00 | 83 | 1009.6 |
| 20260901162537 | 60 | 185 | 4.0 | 8.0 | 0.00 | 0.00 | 0.00 | 83 | 1009.6 |
| 20260901162017 | 60 | 180 | 5.0 | 8.0 | 0.00 | 0.00 | 0.00 | 83 | 1009.6 |
| 20260901161517 | 60 | 169 | 4.0 | 8.0 | 0.00 | 0.00 | 0.00 | 84 | 1009.6 |
| 20260901161017 | 60 | 185 | 4.0 | 10.0 | 0.00 | 0.00 | 0.00 | 84 | 1009.7 |
| 20260901160517 | 60 | 196 | 4.0 | 7.0 | 0.00 | 0.00 | 0.00 | 84 | 1009.6 |
| 20260901160017 | 60 | 162 | 4.0 | 8.0 | 0.00 | 0.00 | 0.00 | 84 | 1009.6 |
| 20260901155518 | 60 | 169 | 4.0 | 7.0 | 0.00 | 0.00 | 0.00 | 85 | 1009.7 |
| 20260901155040 | 59 | 174 | 3.0 | 7.0 | 0.00 | 0.00 | 0.00 | 85 | 1009.7 |
| 20260901154520 | 59 | 210 | 3.0 | 6.0 | 0.00 | 0.00 | 0.00 | 85 | 1009.7 |
| 20260901154018 | 60 | 194 | 3.0 | 8.0 | 0.00 | 0.00 | 0.00 | 85 | 1009.8 |
| 20260901153518 | 59 | 183 | 4.0 | 9.0 | 0.00 | 0.00 | 0.00 | 85 | 1009.8 |
| 20260901153018 | 59 | 171 | 3.0 | 6.0 | 0.00 | 0.00 | 0.00 | 85 | 1009.8 |
| 20260901152518 | 59 | 189 | 2.0 | 7.0 | 0.00 | 0.00 | 0.00 | 85 | 1009.8 |
| 20260901152018 | 59 | 208 | 2.0 | 6.0 | 0.00 | 0.00 | 0.00 | 85 | 1009.8 |
| 20260901151538 | 59 | 188 | 3.0 | 8.0 | 0.00 | 0.00 | 0.00 | 86 | 1009.8 |
| 20260901151018 | 59 | 175 | 4.0 | 7.0 | 0.00 | 0.00 | 0.00 | 86 | 1009.8 |
| 20260901150518 | 59 | 199 | 3.0 | 6.0 | 0.00 | 0.00 | 0.00 | 86 | 1009.8 |
| 20260901150018 | 59 | 207 | 3.0 | 6.0 | 0.00 | 0.00 | 0.00 | 86 | 1009.8 |
| 20260901145518 | 59 | 219 | 2.0 | 5.0 | 0.00 | 0.00 | 0.00 | 86 | 1009.8 |
| 20260901145018 | 58 | 187 | 2.0 | 5.0 | 0.00 | 0.00 | 0.00 | 86 | 1009.7 |
| 20260901144521 | 58 | 225 | 2.0 | 4.0 | 0.00 | 0.00 | 0.00 | 86 | 1009.6 |
| 20260901144019 | 59 | 216 | 2.0 | 6.0 | 0.00 | 0.00 | 0.00 | 86 | 1009.6 |
| 20260901143519 | 59 | 200 | 1.0 | 5.0 | 0.00 | 0.00 | 0.00 | 86 | 1009.6 |
| 20260901143018 | 59 | 240 | 2.0 | 4.0 | 0.00 | 0.00 | 0.00 | 86 | 1009.6 |
| 20260901142518 | 59 | 220 | 1.0 | 2.0 | 0.00 | 0.00 | 0.00 | 85 | 1009.6 |
| 20260901142016 | 59 | 248 | 2.0 | 5.0 | 0.00 | 0.00 | 0.00 | 85 | 1009.6 |
| 20260901141519 | 59 | 222 | 1.0 | 3.0 | 0.00 | 0.00 | 0.00 | 85 | 1009.5 |
| 20260901141016 | 59 | 157 | 1.0 | 4.0 | 0.00 | 0.00 | 0.00 | 84 | 1009.4 |
| 20260901140518 | 58 | 212 | 2.0 | 5.0 | 0.00 | 0.00 | 0.00 | 84 | 1009.3 |
| 20260901140016 | 58 | 164 | 0.0 | 3.0 | 0.00 | 0.00 | 0.00 | 84 | 1009.2 |
| 20260901135515 | 58 | 257 | 1.0 | 3.0 | 0.00 | 0.00 | 0.00 | 83 | 1009.2 |
| 20260901135038 | 58 | 201 | 1.0 | 3.0 | 0.00 | 0.00 | 0.00 | 82 | 1009.1 |
| 20260901134516 | 59 | 241 | 1.0 | 2.0 | 0.00 | 0.00 | 0.00 | 81 | 1009.1 |
| 20260901134017 | 59 | 229 | 1.0 | 4.0 | 0.00 | 0.00 | 0.00 | 81 | 1009.1 |
| 20260901133516 | 59 | 227 | 2.0 | 5.0 | 0.00 | 0.00 | 0.00 | 80 | 1009.0 |
| 20260901133017 | 59 | 204 | 3.0 | 5.0 | 0.00 | 0.00 | 0.00 | 79 | 1009.0 |
| 20260901132516 | 59 | 211 | 2.0 | 4.0 | 0.00 | 0.00 | 0.00 | 79 | 1009.0 |
| 20260901132037 | 59 | 199 | 3.0 | 6.0 | 0.00 | 0.00 | 0.00 | 79 | 1009.0 |
| 20260901131517 | 59 | 183 | 5.0 | 8.0 | 0.00 | 0.00 | 0.00 | 80 | 1009.0 |
| 20260901131017 | 59 | 186 | 3.0 | 8.0 | 0.00 | 0.00 | 0.00 | 81 | 1008.9 |
| 20260901130517 | 59 | 183 | 2.0 | 5.0 | 0.00 | 0.00 | 0.00 | 80 | 1008.9 |
| 20260901130016 | 59 | 180 | 2.0 | 4.0 | 0.00 | 0.00 | 0.00 | 80 | 1008.8 |
| 20260901125517 | 59 | 193 | 2.0 | 4.0 | 0.00 | 0.00 | 0.00 | 80 | 1008.8 |
| 20260901125038 | 59 | 203 | 2.0 | 4.0 | 0.00 | 0.00 | 0.00 | 81 | 1008.8 |
| 20260901124517 | 59 | 203 | 1.0 | 3.0 | 0.00 | 0.00 | 0.00 | 81 | 1008.8 |
| 20260901124018 | 59 | 212 | 1.0 | 3.0 | 0.00 | 0.00 | 0.00 | 82 | 1008.8 |
| 20260901123538 | 59 | 194 | 1.0 | 4.0 | 0.00 | 0.00 | 0.00 | 82 | 1008.8 |
| 20260901123017 | 58 | 222 | 1.0 | 3.0 | 0.00 | 0.00 | 0.00 | 82 | 1008.8 |
| 20260901122518 | 58 | 189 | 2.0 | 4.0 | 0.00 | 0.00 | 0.00 | 84 | 1008.8 |
| 20260901122017 | 57 | 239 | 2.0 | 4.0 | 0.00 | 0.00 | 0.00 | 85 | 1008.7 |
| 20260901121521 | 57 | 280 | 2.0 | 3.0 | 0.00 | 0.00 | 0.00 | 86 | 1008.6 |
| 20260901121018 | 56 | 283 | 1.0 | 2.0 | 0.00 | 0.00 | 0.00 | 87 | 1008.6 |
| 20260901120538 | 56 | 282 | 1.0 | 2.0 | 0.00 | 0.00 | 0.00 | 87 | 1008.5 |
| 20260901120018 | 56 | 305 | 1.0 | 2.0 | 0.00 | 0.00 | 0.00 | 86 | 1008.5 |
| 20260901115518 | 56 | 308 | 0.0 | 2.0 | 0.00 | 0.00 | 0.00 | 86 | 1008.4 |
| 20260901115019 | 56 | 321 | 0.0 | 1.0 | 0.00 | 0.00 | 0.00 | 86 | 1008.4 |
| 20260901114539 | 56 | 315 | 0.0 | 1.0 | 0.00 | 0.00 | 0.00 | 85 | 1008.4 |
| 20260901114019 | 56 | 242 | 0.0 | 1.0 | 0.00 | 0.00 | 0.00 | 85 | 1008.4 |
| 20260901113519 | 56 | 263 | 0.0 | 1.0 | 0.00 | 0.00 | 0.00 | 84 | 1008.4 |
| 20260901113018 | 57 | 314 | 0.0 | 1.0 | 0.00 | 0.00 | 0.00 | 84 | 1008.4 |
| 20260901112518 | 57 | 281 | 1.0 | 2.0 | 0.00 | 0.00 | 0.00 | 83 | 1008.4 |
| 20260901112019 | 57 | 281 | 1.0 | 2.0 | 0.00 | 0.00 | 0.00 | 83 | 1008.4 |
| 20260901111519 | 57 | 277 | 1.0 | 3.0 | 0.00 | 0.00 | 0.00 | 83 | 1008.4 |
| 20260901111040 | 57 | 262 | 1.0 | 2.0 | 0.00 | 0.00 | 0.00 | 83 | 1008.4 |
| 20260901110520 | 57 | 278 | 1.0 | 2.0 | 0.00 | 0.00 | 0.00 | 83 | 1008.4 |
| 20260901110040 | 57 | 267 | 0.0 | 2.0 | 0.00 | 0.00 | 0.00 | 83 | 1008.4 |
| 20260901105521 | 57 | 271 | 0.0 | 1.0 | 0.00 | 0.00 | 0.00 | 83 | 1008.4 |
| 20260901105016 | 57 | 283 | 0.0 | 2.0 | 0.00 | 0.00 | 0.00 | 83 | 1008.4 |
| 20260901104519 | 57 | 286 | 0.0 | 2.0 | 0.00 | 0.00 | 0.00 | 83 | 1008.4 |
| 20260901104037 | 57 | 296 | 0.0 | 1.0 | 0.00 | 0.00 | 0.00 | 83 | 1008.3 |
| 20260901103545 | 57 | 277 | 1.0 | 2.0 | 0.00 | 0.00 | 0.00 | 82 | 1008.4 |
| 20260901103020 | 57 | 277 | 1.0 | 2.0 | 0.00 | 0.00 | 0.00 | 83 | 1008.4 |
| 20260901102516 | 57 | 279 | 1.0 | 2.0 | 0.00 | 0.00 | 0.00 | 83 | 1008.4 |
| 20260901102037 | 57 | 289 | 0.0 | 2.0 | 0.00 | 0.00 | 0.00 | 83 | 1008.4 |
| 20260901101517 | 57 | 275 | 0.0 | 2.0 | 0.00 | 0.00 | 0.00 | 83 | 1008.4 |
| 20260901101039 | 57 | 293 | 0.0 | 1.0 | 0.00 | 0.00 | 0.00 | 82 | 1008.3 |
| 20260901100519 | 57 | 277 | 0.0 | 1.0 | 0.00 | 0.00 | 0.00 | 82 | 1008.2 |
| 20260901100016 | 57 | 286 | 0.0 | 1.0 | 0.00 | 0.00 | 0.00 | 82 | 1008.1 |
| 20260901095517 | 57 | 300 | 0.0 | 1.0 | 0.00 | 0.00 | 0.00 | 82 | 1008.1 |
| 20260901095017 | 57 | 302 | 0.0 | 2.0 | 0.00 | 0.00 | 0.00 | 82 | 1008.0 |
| 20260901094523 | 57 | 292 | 1.0 | 2.0 | 0.00 | 0.00 | 0.00 | 81 | 1008.1 |
| 20260901094018 | 58 | 292 | 0.0 | 2.0 | 0.00 | 0.00 | 0.00 | 81 | 1008.1 |
| 20260901093519 | 58 | 296 | 0.0 | 1.0 | 0.00 | 0.00 | 0.00 | 81 | 1008.1 |
| 20260901093017 | 58 | 302 | 0.0 | 1.0 | 0.00 | 0.00 | 0.00 | 81 | 1008.1 |
| 20260901092517 | 58 | 294 | 0.0 | 2.0 | 0.00 | 0.00 | 0.00 | 81 | 1008.1 |
| 20260901092019 | 58 | 296 | 0.0 | 2.0 | 0.00 | 0.00 | 0.00 | 80 | 1008.1 |
| 20260901091521 | 58 | 272 | 0.0 | 1.0 | 0.00 | 0.00 | 0.00 | 81 | 1008.1 |
| 20260901091020 | 58 | 274 | 0.0 | 2.0 | 0.00 | 0.00 | 0.00 | 80 | 1008.2 |
| 20260901090517 | 58 | 280 | 1.0 | 2.0 | 0.00 | 0.00 | 0.00 | 80 | 1008.1 |
| 20260901090019 | 58 | 291 | 0.0 | 2.0 | 0.00 | 0.00 | 0.00 | 79 | 1008.1 |
| 20260901085521 | 58 | 284 | 0.0 | 2.0 | 0.00 | 0.00 | 0.00 | 79 | 1008.1 |
| 20260901085038 | 59 | 300 | 0.0 | 2.0 | 0.00 | 0.00 | 0.00 | 78 | 1008.1 |
| 20260901084517 | 59 | 300 | 0.0 | 1.0 | 0.00 | 0.00 | 0.00 | 78 | 1008.1 |
| 20260901084021 | 59 | 286 | 0.0 | 1.0 | 0.00 | 0.00 | 0.00 | 78 | 1008.1 |
| 20260901083538 | 59 | 306 | 0.0 | 2.0 | 0.00 | 0.00 | 0.00 | 78 | 1008.0 |
| 20260901083021 | 59 | 299 | 0.0 | 1.0 | 0.00 | 0.00 | 0.00 | 77 | 1008.0 |
| 20260901082518 | 59 | 280 | 0.0 | 1.0 | 0.00 | 0.00 | 0.00 | 77 | 1008.0 |
| 20260901082018 | 59 | 276 | 1.0 | 2.0 | 0.00 | 0.00 | 0.00 | 77 | 1008.0 |
| 20260901081538 | 59 | 267 | 1.0 | 2.0 | 0.00 | 0.00 | 0.00 | 77 | 1008.0 |
| 20260901081019 | 59 | 281 | 1.0 | 2.0 | 0.00 | 0.00 | 0.00 | 77 | 1007.9 |
| 20260901080518 | 60 | 295 | 1.0 | 2.0 | 0.00 | 0.00 | 0.00 | 77 | 1007.9 |
| 20260901080021 | 60 | 293 | 1.0 | 2.0 | 0.00 | 0.00 | 0.00 | 75 | 1007.9 |
| 20260901075519 | 60 | 295 | 1.0 | 2.0 | 0.00 | 0.00 | 0.00 | 75 | 1007.9 |
| 20260901075022 | 60 | 295 | 1.0 | 2.0 | 0.00 | 0.00 | 0.00 | 75 | 1008.0 |
| 20260901074538 | 60 | 300 | 0.0 | 1.0 | 0.00 | 0.00 | 0.00 | 75 | 1008.0 |
| 20260901074016 | 60 | 301 | 0.0 | 1.0 | 0.00 | 0.00 | 0.00 | 75 | 1007.9 |
| 20260901073518 | 60 | 287 | 0.0 | 2.0 | 0.00 | 0.00 | 0.00 | 76 | 1007.9 |
| 20260901073018 | 60 | 297 | 1.0 | 2.0 | 0.00 | 0.00 | 0.00 | 76 | 1007.9 |
| 20260901072515 | 60 | 294 | 0.0 | 1.0 | 0.00 | 0.00 | 0.00 | 76 | 1007.9 |
| 20260901072019 | 60 | 280 | 1.0 | 1.0 | 0.00 | 0.00 | 0.00 | 77 | 1007.9 |
| 20260901071515 | 61 | 299 | 0.0 | 1.0 | 0.00 | 0.00 | 0.00 | 77 | 1007.9 |
| 20260901071016 | 60 | 287 | 0.0 | 2.0 | 0.00 | 0.00 | 0.00 | 77 | 1007.9 |
| 20260901070516 | 61 | 291 | 1.0 | 2.0 | 0.00 | 0.00 | 0.00 | 78 | 1007.9 |
| 20260901070016 | 61 | 292 | 1.0 | 2.0 | 0.00 | 0.00 | 0.00 | 77 | 1007.9 |
| 20260901065557 | 61 | 276 | 1.0 | 2.0 | 0.00 | 0.00 | 0.00 | 77 | 1007.8 |
| 20260901065016 | 61 | 296 | 0.0 | 1.0 | 0.00 | 0.00 | 0.00 | 77 | 1007.9 |
| 20260901064516 | 61 | 287 | 1.0 | 2.0 | 0.00 | 0.00 | 0.00 | 77 | 1007.9 |
| 20260901064017 | 61 | 291 | 1.0 | 2.0 | 0.00 | 0.00 | 0.00 | 76 | 1007.9 |
| 20260901063516 | 62 | 293 | 1.0 | 2.0 | 0.00 | 0.00 | 0.00 | 75 | 1007.9 |
| 20260901063022 | 62 | 284 | 1.0 | 2.0 | 0.00 | 0.00 | 0.00 | 75 | 1007.9 |
| 20260901062517 | 62 | 283 | 1.0 | 2.0 | 0.00 | 0.00 | 0.00 | 74 | 1007.9 |
| 20260901062017 | 62 | 295 | 1.0 | 2.0 | 0.00 | 0.00 | 0.00 | 74 | 1007.9 |
| 20260901061517 | 62 | 283 | 1.0 | 2.0 | 0.00 | 0.00 | 0.00 | 73 | 1008.0 |
| 20260901061017 | 62 | 293 | 1.0 | 2.0 | 0.00 | 0.00 | 0.00 | 74 | 1008.0 |
| 20260901060538 | 62 | 291 | 1.0 | 2.0 | 0.00 | 0.00 | 0.00 | 74 | 1008.0 |
| 20260901060017 | 63 | 274 | 1.0 | 2.0 | 0.00 | 0.00 | 0.00 | 73 | 1008.0 |
| 20260901055520 | 63 | 288 | 1.0 | 2.0 | 0.00 | 0.00 | 0.00 | 73 | 1007.9 |
| 20260901055017 | 63 | 302 | 0.0 | 1.0 | 0.00 | 0.00 | 0.00 | 74 | 1008.1 |
| 20260901054520 | 63 | 283 | 1.0 | 2.0 | 0.00 | 0.00 | 0.00 | 73 | 1008.2 |
| 20260901054018 | 63 | 290 | 0.0 | 1.0 | 0.00 | 0.00 | 0.00 | 73 | 1008.2 |
| 20260901053541 | 64 | 286 | 1.0 | 2.0 | 0.00 | 0.00 | 0.00 | 72 | 1008.2 |
| 20260901053017 | 64 | 288 | 1.0 | 2.0 | 0.00 | 0.00 | 0.00 | 71 | 1008.2 |
| 20260901052518 | 64 | 275 | 1.0 | 2.0 | 0.00 | 0.00 | 0.00 | 71 | 1008.1 |
| 20260901052017 | 64 | 272 | 1.0 | 2.0 | 0.00 | 0.00 | 0.00 | 70 | 1008.1 |
| 20260901051521 | 64 | 273 | 1.0 | 2.0 | 0.00 | 0.00 | 0.00 | 70 | 1008.1 |
| 20260901051018 | 64 | 282 | 1.0 | 2.0 | 0.00 | 0.00 | 0.00 | 70 | 1008.1 |
| 20260901050538 | 64 | 281 | 1.0 | 3.0 | 0.00 | 0.00 | 0.00 | 69 | 1008.2 |
| 20260901050018 | 64 | 285 | 1.0 | 2.0 | 0.00 | 0.00 | 0.00 | 69 | 1008.2 |
| 20260901045518 | 64 | 281 | 2.0 | 2.0 | 0.00 | 0.00 | 0.00 | 69 | 1008.3 |
| 20260901045019 | 64 | 289 | 1.0 | 2.0 | 0.00 | 0.00 | 0.00 | 70 | 1008.2 |
| 20260901044518 | 64 | 295 | 1.0 | 2.0 | 0.00 | 0.00 | 0.00 | 69 | 1008.2 |
| 20260901044018 | 64 | 293 | 1.0 | 2.0 | 0.00 | 0.00 | 0.00 | 69 | 1008.3 |
| 20260901043518 | 65 | 286 | 1.0 | 2.0 | 0.00 | 0.00 | 0.00 | 69 | 1008.3 |
| 20260901043039 | 65 | 266 | 1.0 | 2.0 | 0.00 | 0.00 | 0.00 | 68 | 1008.2 |
| 20260901042518 | 65 | 292 | 0.0 | 2.0 | 0.00 | 0.00 | 0.00 | 68 | 1008.1 |
| 20260901042022 | 65 | 294 | 0.0 | 2.0 | 0.00 | 0.00 | 0.00 | 68 | 1008.1 |
| 20260901041518 | 65 | 292 | 0.0 | 1.0 | 0.00 | 0.00 | 0.00 | 68 | 1008.1 |
| 20260901041019 | 65 | 306 | 0.0 | 1.0 | 0.00 | 0.00 | 0.00 | 67 | 1008.1 |
| 20260901040523 | 65 | 285 | 0.0 | 1.0 | 0.00 | 0.00 | 0.00 | 67 | 1008.1 |
| 20260901040039 | 65 | 290 | 0.0 | 1.0 | 0.00 | 0.00 | 0.00 | 66 | 1008.0 |
| 20260901035518 | 65 | 281 | 0.0 | 1.0 | 0.00 | 0.00 | 0.00 | 66 | 1008.0 |
| 20260901035016 | 66 | 354 | 0.0 | 2.0 | 0.00 | 0.00 | 0.00 | 66 | 1007.9 |